Flag for U.S.A. Weather past 2 weeks in San Luis Obispo, California, U.S.A.

Now
63 °F

Clear.


Feels Like: 63 °F
Forecast: 60 / 84 °F
Wind: 3 mph from Northwest

Location: San Luis Obispo County-Mc Chesney Field

Current Time: Sep 15, 2014 at 11:00:33 PM

Latest Report: Sep 15, 2014 at 9:56 PM


Visibility: 10 mi

Pressure: 29.90 "Hg

Humidity: 75%

Dew point: 55 °F

Location of San Luis ObispoLocation

Historic Weather in San Luis Obispo — Graph

°F

San Luis Obispo temperature yesterday

Maximum temperature yesterday: 84 °F (at 1:56 PM)
Minimum temperature yesterday: 58 °F (at 2:56 AM)
Average temperature yesterday: 66 °F

Past Weeks' High & Low Weather Summary

 TemperatureHumidityPressure
High85 °F (Sep 15, 12:56 PM)100% (Sep 1, 5:56 AM)29.98 "Hg (Sep 1, 5:56 AM)
Low32 °F (Sep 1, 5:56 AM)35% (Sep 15, 12:56 PM)29.73 "Hg (Sep 3, 4:56 PM)
Average64 °F78%29.85 "Hg
* Reported Aug 31 9:56 PM — Sep 15 9:56 PM, San Luis Obispo, Weather by CustomWeather, © 2014

Note: Actual official high and low records may vary slightly from our data, if they occured in-between our weather recording intervals... More about our weather records

Advertising

San Luis Obispo weather history for previous 24 hours

 ConditionsComfort  
Time TempWeatherWind HumidityBarometerVisibility
9:56 PM
Sep 15
63 °FClear.3 mph75%29.90 "Hg10 mi
8:56 PM64 °FClear.8 mph73%29.89 "Hg10 mi
7:56 PM66 °FSunny.9 mph70%29.88 "Hg10 mi
6:56 PM68 °FSunny.14 mph63%29.86 "Hg10 mi
5:56 PM75 °FSunny.12 mph48%29.85 "Hg10 mi
4:56 PM78 °FSunny.17 mph39%29.85 "Hg10 mi
3:56 PM78 °FSunny.18 mph42%29.85 "Hg10 mi
2:56 PM82 °FSunny.15 mph37%29.84 "Hg10 mi
1:56 PM83 °FSunny.17 mph38%29.85 "Hg10 mi
12:56 PM85 °FSunny.12 mph35%29.85 "Hg10 mi
11:56 AM78 °FSunny.9 mph52%29.88 "Hg10 mi
10:56 AM74 °FSunny.7 mph57%29.88 "Hg10 mi
9:56 AM69 °FSunny.No wind70%29.88 "Hg10 mi
9:04 AM63 °FPassing clouds.No wind87%29.89 "Hg10 mi
7:56 AM59 °FFog.7 mph100%29.88 "Hg1 mi
6:56 AM59 °FFog.6 mph96%29.86 "Hg2 mi
5:56 AM59 °FFog.6 mph96%29.83 "Hg6 mi
5:03 AM59 °FFog.13 mph100%29.83 "Hg4 mi
4:56 AM59 °FFog.13 mph96%29.82 "Hg6 mi
3:56 AM59 °FClear.No wind90%29.82 "Hg10 mi
2:56 AM59 °FClear.No wind90%29.82 "Hg10 mi
1:56 AM60 °FClear.No wind86%29.83 "Hg10 mi
12:56 AM60 °FClear.No wind90%29.82 "Hg10 mi
11:56 PM
Sep 14
61 °FClear.No wind90%29.83 "Hg10 mi
Weather by CustomWeather, © 2014

See weather overviewHow to use our weather pages